Weather History for Chennai, India

Change the Weather History Date:

Sunday, September 9, 2012

  Actual Average Record
Temperature  
Mean Temperature 82 °F -  
Max Temperature 88 °F 88 °F 95 °F (1998)
Min Temperature 76 °F 76 °F 75 °F (2013)
Cooling Degree Days 17    
Growing Degree Days 32 (Base 50)    
Moisture  
Dew Point 75 °F    
Average Humidity 75    
Maximum Humidity 89    
Minimum Humidity 58    
Precipitation  
Precipitation 0.00 in 0.29 in - ()
Sea Level Pressure  
Sea Level Pressure 29.71 in    
Wind  
Wind Speed 7 mph ()    
Max Wind Speed 17 mph    
Max Gust Speed -    
Visibility 3.9 miles    
Events      
Averages and records for this station are not official NWS values.
T = Trace of Precipitation, MM = Missing Value Source: Averaged Metar Reports

Daily Weather History Graph

Daily Weather History Graph

Search for Another Location

Airport:

Trip Planner

Search our weather history database for the weather conditions in past years. The results will help you decide how hot, cold, wet, or windy it might be!

Date:

Astronomy

Sep. 09, 2012 Rise Set
Actual Time 5:58 AM IST 6:14 PM IST
Civil Twilight 5:37 AM IST 6:35 PM IST
Nautical Twilight 5:12 AM IST 7:00 PM IST
Astronomical Twilight 4:47 AM IST 7:25 PM IST
Moon No Moon Rise 12:54 PM IST (9/9)
Length of Visible Light 12h 58m
Length of Day
12h 16m
Last Quarter, 43% of the Moon is Illuminated
Sep 9
Last Quarter
Sep 16
New
Sep 23
First Quarter
Sep 30
Full
Oct 8
Last Quarter

Hourly Weather History & Observations

Time (IST) Temp. Heat Index Dew Point Humidity Pressure Visibility Wind Dir Wind Speed Gust Speed Precip Events Conditions
12:10 AM 80.6 °F 87.1 °F 77.0 °F 89% 29.74 in 3.1 mi SSW 5.8 mph - N/A   Haze
12:40 AM 80.6 °F 87.1 °F 77.0 °F 89% 29.74 in 3.1 mi SSW 5.8 mph - N/A   Haze
1:10 AM 80.6 °F 87.1 °F 77.0 °F 89% 29.71 in 3.1 mi SSW 8.1 mph - N/A   Haze
1:40 AM 80.6 °F 87.1 °F 77.0 °F 89% 29.71 in 3.1 mi SW 8.1 mph - N/A   Haze
2:10 AM 82.4 °F 90.9 °F 77.0 °F 84% 29.71 in 3.1 mi SW 13.8 mph - N/A   Haze
2:30 AM 81 °F - 77 °F 83% 29.73 in 2 mi SW 5.8 mph - -   Partly Cloudy
2:40 AM 82.4 °F 90.9 °F 77.0 °F 84% 29.68 in 3.1 mi SW 11.5 mph - N/A   Haze
3:10 AM 82.4 °F 90.9 °F 77.0 °F 84% 29.68 in 3.1 mi SW 12.7 mph - N/A   Haze
3:40 AM 80.6 °F 86.2 °F 75.2 °F 84% 29.68 in 3.1 mi SW 17.3 mph - N/A   Haze
4:10 AM 78.8 °F - 73.4 °F 83% 29.68 in 3.1 mi SW 16.1 mph - N/A   Haze
4:40 AM 78.8 °F - 73.4 °F 83% 29.68 in 3.1 mi WSW 9.2 mph - N/A   Haze
5:10 AM 78.8 °F - 73.4 °F 83% 29.68 in 3.1 mi WSW 8.1 mph - N/A   Haze
5:30 AM 79 °F - 74 °F 81% 29.71 in 2 mi West 2.3 mph - -   Scattered Clouds
5:40 AM 78.8 °F - 71.6 °F 78% 29.68 in 3.1 mi SW 6.9 mph - N/A   Haze
6:10 AM 78.8 °F - 71.6 °F 78% 29.68 in 3.1 mi SW 6.9 mph - N/A   Haze
7:10 AM 78.8 °F - 73.4 °F 83% 29.71 in 3.7 mi West 4.6 mph - N/A   Scattered Clouds
7:40 AM 78.8 °F - 73.4 °F 83% 29.71 in 3.7 mi West 4.6 mph - N/A   Mostly Cloudy
8:10 AM 80.6 °F 85.4 °F 73.4 °F 79% 29.74 in 3.7 mi SW 5.8 mph - N/A   Mostly Cloudy
8:30 AM 81 °F - 73 °F 71% 29.76 in 6 mi SW 2.3 mph - -   Overcast
8:40 AM 82.4 °F 88.2 °F 73.4 °F 74% 29.74 in 5.0 mi SW 5.8 mph - N/A   Mostly Cloudy
9:10 AM 82.4 °F 88.2 °F 73.4 °F 74% 29.74 in 5.0 mi SW 9.2 mph - N/A   Mostly Cloudy
9:40 AM 84.2 °F 90.9 °F 73.4 °F 70% 29.74 in 5.0 mi WSW 9.2 mph - N/A   Mostly Cloudy
10:10 AM 86.0 °F 93.4 °F 73.4 °F 66% 29.74 in 5.0 mi WSW 11.5 mph - N/A   Mostly Cloudy
10:40 AM 86.0 °F 93.4 °F 73.4 °F 66% 29.74 in 5.0 mi West 9.2 mph - N/A   Mostly Cloudy
11:10 AM 86.0 °F 93.4 °F 73.4 °F 66% 29.74 in 5.0 mi WSW 10.4 mph - N/A   Mostly Cloudy
11:30 AM 86 °F - 73 °F 58% 29.77 in 6 mi SW 2.3 mph - -   Overcast
11:40 AM 87.8 °F 95.6 °F 73.4 °F 62% 29.74 in 5.0 mi West 6.9 mph - N/A   Mostly Cloudy
12:10 PM 86.0 °F 93.4 °F 73.4 °F 66% 29.74 in 5.0 mi West 9.2 mph - N/A   Mostly Cloudy
12:40 PM 86.0 °F 93.4 °F 73.4 °F 66% 29.74 in 5.0 mi WSW 6.9 mph - N/A   Overcast
1:10 PM 87.8 °F 95.6 °F 73.4 °F 62% 29.71 in 5.0 mi West 4.6 mph - N/A   Mostly Cloudy
1:40 PM 87.8 °F 95.6 °F 73.4 °F 62% 29.71 in 5.0 mi SW 5.8 mph - N/A   Mostly Cloudy
2:10 PM 87.8 °F 97.6 °F 75.2 °F 66% 29.68 in 4.3 mi WSW 4.6 mph - N/A   Mostly Cloudy
2:30 PM 87 °F - 76 °F 61% 29.72 in 6 mi Calm Calm - -   Partly Cloudy
2:40 PM 87.8 °F 95.6 °F 73.4 °F 62% 29.68 in 4.3 mi WSW 6.9 mph - N/A   Mostly Cloudy
3:10 PM 87.8 °F 95.6 °F 73.4 °F 62% 29.68 in 4.3 mi West 8.1 mph - N/A   Mostly Cloudy
3:40 PM 87.8 °F 97.6 °F 75.2 °F 66% 29.65 in 4.3 mi WSW 5.8 mph - N/A   Scattered Clouds
4:10 PM 87.8 °F 95.6 °F 73.4 °F 62% 29.65 in 4.3 mi SW 5.8 mph - N/A   Scattered Clouds
4:40 PM 87.8 °F 95.6 °F 73.4 °F 62% 29.65 in 3.7 mi WSW 9.2 mph - N/A   Scattered Clouds
5:10 PM 87.8 °F 95.6 °F 73.4 °F 62% 29.65 in 3.7 mi Calm Calm - N/A   Scattered Clouds
5:30 PM 86 °F - 78 °F 73% 29.70 in 6 mi Calm Calm - -   Scattered Clouds
5:40 PM 87.8 °F 95.6 °F 73.4 °F 62% 29.65 in 3.7 mi SSW 3.5 mph - N/A   Scattered Clouds
6:10 PM 86.0 °F 95.1 °F 75.2 °F 70% 29.65 in 3.7 mi SSE 4.6 mph - N/A   Scattered Clouds
6:40 PM 84.2 °F 94.1 °F 77.0 °F 79% 29.68 in 3.7 mi South 4.6 mph - N/A   Mostly Cloudy
7:10 PM 84.2 °F 94.1 °F 77.0 °F 79% 29.68 in 3.7 mi Calm Calm - N/A   Mostly Cloudy
7:40 PM 84.2 °F 94.1 °F 77.0 °F 79% 29.71 in 3.7 mi South 5.8 mph - N/A   Scattered Clouds
8:10 PM 84.2 °F 94.1 °F 77.0 °F 79% 29.71 in 3.7 mi South 4.6 mph - N/A   Scattered Clouds
8:30 PM 82 °F - 77 °F 82% 29.75 in 2 mi SSE 2.3 mph - -   Scattered Clouds
8:40 PM 82.4 °F 90.9 °F 77.0 °F 84% 29.74 in 3.7 mi South 3.5 mph - N/A   Scattered Clouds
9:10 PM 82.4 °F 90.9 °F 77.0 °F 84% 29.74 in 3.7 mi South 4.6 mph - N/A   Scattered Clouds
9:40 PM 82.4 °F 90.9 °F 77.0 °F 84% 29.77 in 3.7 mi SSW 4.6 mph - N/A   Scattered Clouds
10:10 PM 82.4 °F 90.9 °F 77.0 °F 84% 29.77 in 3.7 mi SW 6.9 mph - N/A   Mostly Cloudy
10:40 PM 82.4 °F 89.5 °F 75.2 °F 79% 29.77 in 3.7 mi SSW 6.9 mph - N/A   Mostly Cloudy
11:10 PM 84.2 °F 92.3 °F 75.2 °F 74% 29.74 in 3.7 mi South 8.1 mph - N/A   Mostly Cloudy
11:30 PM 82 °F - 76 °F 78% 29.77 in 2 mi South 2.3 mph - -   Scattered Clouds
11:40 PM 84.2 °F 92.3 °F 75.2 °F 74% 29.74 in 3.7 mi SSW 6.9 mph - N/A   Mostly Cloudy